Weather Roundup
Issued by NWS Corpus Christi, TX

Home | Current Version | Previous Version | Text Only | Print | Product List | Glossary On
Versions: 1 2 3 4 5 6 7 8 9 10 11 12 13 14 15 16 17 18 19 20 21 22 23 24 25 26 27 28 29 30 31 32 33 34 35 36 37 38 39 40 41 42 43 44 45 46 47 48 49 50
000
ASUS44 KCRP 231710
HRRCRP

SOUTH TEXAS REGIONAL WEATHER ROUNDUP
NATIONAL WEATHER SERVICE CORPUS CHRISTI TX
1200 PM CDT SAT AUG 23 2014


TXZ229>244-231800-
...CORPUS CHRISTI AREA OBSERVATIONS...

CITY           SKY/WX    TMP DP  RH WIND       PRES   REMARKS
CORPUS CHRISTI MOSUNNY   93  70  46 S9        29.99F HX  99
NAS CORPUS CHR MOSUNNY   91  74  57 SE12      30.00S HX 100
ROCKPORT       SUNNY     90  75  61 SE9       30.01R HX 100
KINGSVILLE NAS MOSUNNY   95  75  52 SE13G20   29.99S HX 107
ALICE          MOSUNNY   94  70  45 S9        29.98F HX 100
FALFURRIAS     MOSUNNY   94  72  47 S12       29.98F HX 102
$$

...VICTORIA AREA OBSERVATIONS...

CITY           SKY/WX    TMP DP  RH WIND       PRES   REMARKS
VICTORIA       SUNNY     96  69  41 S12       30.01F HX 102
BEEVILLE       FAIR      93  67  42 S12       30.00F HX  96
PLEASANTON     SUNNY     92  67  44 SE12      30.02S HX  95
SAN ANTONIO    MOSUNNY   89  70  53 S9        30.04S HX  94
$$

...LAREDO AREA OBSERVATIONS...

CITY           SKY/WX    TMP DP  RH WIND       PRES   REMARKS
LAREDO         SUNNY     95  69  42 S16       29.99F HX 100
COTULLA        SUNNY     93  67  42 SE12G18   29.99F HX  96
DEL RIO        SUNNY     87  68  52 SE14G21   29.98F HX  90
MCALLEN        PTSUNNY   94  72  48 SE14G22   29.97F HX 102
HEBBRONVILLE   SUNNY     92  67  43 S14       30.01S HX  94
$$

...OTHER TEXAS OBSERVATIONS...

CITY           SKY/WX    TMP DP  RH WIND       PRES   REMARKS
BROWNSVILLE    MOSUNNY   93  73  52 SE12      29.98S HX 102
HOUSTON        MOSUNNY   91  73  55 SW6       30.03S HX  99
COL. STATION   PTSUNNY   88  72  58 SW7       30.04S HX  94
AUSTIN         MOSUNNY   89  70  53 S10       30.02F HX  94
WACO           SUNNY     90  67  46 S14       30.02F HX  93
FORT WORTH     MOSUNNY   92  62  36 S10G16    30.00F HX  92
WICHITA FALLS  SUNNY     95  59  30 SW15G23   29.96F HX  94
LUBBOCK        MOSUNNY   88  53  30 SW15      30.03S
EL PASO        MOSUNNY   78  60  53 S6        30.10S
$$

...MARINE OBSERVATIONS...

STATION/POSITION TIME  SKY/WX   TEMP    WIND        PRES    VSBY  WAVE   SWELL
                                AIR SEA DIR/SP/G                  HT/PER HT/PER
                 (UTC)          (F)     (DEG/KT/KT) (MB)    (MI)  (FT/S) (FT/S)
PORT ARANSAS     1700            83 83   90/  4/  5 1017.0S
BUOY 90 E PORT A 1700            85 86  120/  6/  8 1016.9S         2/ 6   2/ 6
BUOY 45 SE BAFFI 1700            85 85  140/  8/ 10 1015.5S         2/ 6   2/ 6
BUOY 200 E PT IS 1700            85 87   90/  8/ 10 1016.2S         2/ 5   2/ 5
BUOY 15 E GALVES NOT AVBL
$$


USA.gov is the U.S. government's official web portal to all federal, state and local government web resources and services.